Location: Rodson Ranch
(38.7188°N, 119.3202°W)
Time: 17:19:34
(UTC+00:00)

Nadezhda 4 Rocket - Pass Details

Date: 29 October 2020
Orbit: 950 x 991 km, 82.9° (Epoch: 23 November)

Event Time Altitude Azimuth Distance (km) Brightness Sun altitude
Rises 12:01:42 0° 186° (S) 3,607 6.9 -27.8°
Reaches altitude 10° 12:04:10 10° 186° (S) 2,666 6.2 -27.3°
Maximum altitude 12:10:16 88° 276° (W) 958 3.8 -26.1°
Drops below altitude 10° 12:16:26 10° 6° (N) 2,694 6.4 -24.9°
Sets 12:18:57 0° 7° (N) 3,648 7.1 -24.4°
